User: anonymous   Login
Location: Los Gatos B&B
(42.6926°N, 77.0646°W)
Time: 20:10:36
(UTC-05:00)
Language:

SL-16 R/B - Orbit

View from above orbital plane
View from above orbital plane
View from above satellite
View from above satellite

Ground track
Ground track

The orbit data is extracted from the following two-line orbital elements,

1 28353U 04021B   17022.93394192 -.00000141 +00000-0 -48887-4 0  9997
2 28353 071.0019 023.0829 0003228 031.9819 328.1498 14.14193813651610
Epoch (UTC): 22 January 2017 22:24:52
Eccentricity: 0.0003228
inclination: 71.0019°
perigee height: 843 km
apogee height: 847 km
right ascension of ascending node: 23.0829°
argument of perigee: 31.9819°
revolutions per day: 14.14193813
mean anomaly at epoch: 328.1498°
orbit number at epoch: 65161

The dashed part of the orbit path shows where the satellite is in the earth's shadow,  

DLR